When you browse on this site, cookies collect data to enhance your experience and personalize the content and advertising you see.
Visit our Privacy Policy to learn more. By continuing to use the site, you agree to this use of cookies and data.
  • In Switzerland
  • List of Countries
  • For 7 days
  • Water Temperature
  • Satellite Maps
  • Weather Map
  • Weather Widgets
  • user-avatar
    Login

    Hourly Weather Galway

    Today, 11 December, Tuesday

    Time Temperature Precipitation Wind Pressure Humidity
    00:00 +8°C° 0 mm 4 mps 764 mmHg 95%
    01:00 +8°C° 0 mm 5 mps 763 mmHg 95%
    02:00 +8°C° 0 mm 5 mps 763 mmHg 94%
    03:00 +9°C° 0 mm 5 mps 762 mmHg 94%
    04:00 +9°C° 0 mm 6 mps 762 mmHg 93%
    05:00 +9°C° 0 mm 6 mps 761 mmHg 93%
    06:00 +9°C° 0 mm 6 mps 761 mmHg 92%
    07:00 +9°C° 0 mm 7 mps 760 mmHg 91%
    08:00 +10°C° 0 mm 7 mps 760 mmHg 90%
    09:00 +10°C° 0.1 mm 8 mps 760 mmHg 89%
    10:00 +10°C° 0.1 mm 8 mps 759 mmHg 88%
    11:00 +10°C° 0.1 mm 8 mps 759 mmHg 86%
    12:00 +10°C° 0.6 mm 8 mps 759 mmHg 87%
    13:00 +10°C° 0.6 mm 7 mps 758 mmHg 87%
    14:00 +10°C° 0.6 mm 7 mps 758 mmHg 88%
    15:00 +9°C° 1.7 mm 6 mps 758 mmHg 90%
    16:00 +9°C° 1.7 mm 5 mps 758 mmHg 91%
    17:00 +8°C° 1.7 mm 4 mps 758 mmHg 93%
    18:00 +8°C° 0.6 mm 4 mps 759 mmHg 92%
    19:00 +8°C° 0.6 mm 3 mps 759 mmHg 92%
    20:00 +8°C° 0.6 mm 2 mps 759 mmHg 92%
    21:00 +8°C° 0 mm 2 mps 760 mmHg 91%
    22:00 +7°C° 0 mm 2 mps 760 mmHg 91%
    23:00 +7°C° 0 mm 2 mps 760 mmHg 91%

    Tomorrow, 12 December, Wednesday

    Time Temperature Precipitation Wind Pressure Humidity
    00:00 +7°C° 0 mm 2 mps 760 mmHg 91%
    01:00 +6°C° 0 mm 2 mps 760 mmHg 92%
    02:00 +6°C° 0 mm 2 mps 760 mmHg 92%
    03:00 +6°C° 0 mm 2 mps 760 mmHg 92%
    04:00 +5°C° 0 mm 2 mps 760 mmHg 92%
    05:00 +5°C° 0 mm 2 mps 760 mmHg 92%
    06:00 +5°C° 0 mm 2 mps 759 mmHg 93%
    07:00 +4°C° 0 mm 3 mps 759 mmHg 93%
    08:00 +4°C° 0 mm 3 mps 759 mmHg 94%
    09:00 +5°C° 0 mm 4 mps 758 mmHg 90%
    10:00 +6°C° 0 mm 5 mps 758 mmHg 86%
    11:00 +7°C° 0 mm 6 mps 757 mmHg 83%
    12:00 +7°C° 0 mm 6 mps 757 mmHg 83%
    13:00 +7°C° 0 mm 6 mps 756 mmHg 83%
    14:00 +6°C° 0 mm 7 mps 755 mmHg 84%
    15:00 +6°C° 0 mm 7 mps 754 mmHg 84%
    16:00 +6°C° 0 mm 7 mps 754 mmHg 84%
    17:00 +6°C° 0 mm 8 mps 753 mmHg 84%
    18:00 +6°C° 0.2 mm 8 mps 752 mmHg 83%
    19:00 +6°C° 0.2 mm 8 mps 752 mmHg 83%
    20:00 +6°C° 0.2 mm 9 mps 751 mmHg 83%
    21:00 +6°C° 0.8 mm 9 mps 751 mmHg 83%
    22:00 +6°C° 0.8 mm 9 mps 750 mmHg 83%
    23:00 +6°C° 0.8 mm 9 mps 750 mmHg 83%

    Day after tomorrow, 13 December, Thursday

    Time Temperature Precipitation Wind Pressure Humidity
    00:00 +6°C° 0.8 mm 9 mps 749 mmHg 84%
    01:00 +6°C° 0.8 mm 9 mps 749 mmHg 85%
    02:00 +6°C° 0.8 mm 9 mps 749 mmHg 86%
    03:00 +6°C° 0.7 mm 9 mps 749 mmHg 86%
    04:00 +6°C° 0.7 mm 8 mps 749 mmHg 87%
    05:00 +6°C° 0.7 mm 8 mps 750 mmHg 88%
    06:00 +6°C° 0.4 mm 8 mps 750 mmHg 88%
    07:00 +6°C° 0.4 mm 8 mps 751 mmHg 88%
    08:00 +6°C° 0.4 mm 8 mps 752 mmHg 88%
    09:00 +7°C° 0.4 mm 8 mps 753 mmHg 87%
    10:00 +8°C° 0.4 mm 7 mps 754 mmHg 87%
    11:00 +8°C° 0.4 mm 7 mps 754 mmHg 86%
    12:00 +8°C° 0.2 mm 7 mps 755 mmHg 87%
    13:00 +8°C° 0.2 mm 6 mps 756 mmHg 88%
    14:00 +8°C° 0.2 mm 6 mps 757 mmHg 89%
    15:00 +7°C° 0.2 mm 6 mps 757 mmHg 89%
    16:00 +7°C° 0.2 mm 6 mps 758 mmHg 89%
    17:00 +7°C° 0.2 mm 6 mps 758 mmHg 89%
    18:00 +7°C° 0.3 mm 6 mps 759 mmHg 89%
    19:00 +7°C° 0.3 mm 6 mps 759 mmHg 89%
    20:00 +7°C° 0.3 mm 6 mps 760 mmHg 89%
    21:00 +7°C° 0.1 mm 6 mps 760 mmHg 89%
    22:00 +7°C° 0.1 mm 6 mps 760 mmHg 89%
    23:00 +7°C° 0.1 mm 6 mps 760 mmHg 89%

    14 December, Friday

    Time Temperature Precipitation Wind Pressure Humidity
    00:00 +7°C° 0.3 mm 6 mps 759 mmHg 88%
    01:00 +6°C° 0.3 mm 7 mps 759 mmHg 88%
    02:00 +6°C° 0.3 mm 7 mps 759 mmHg 88%
    03:00 +6°C° 0.2 mm 7 mps 759 mmHg 88%
    04:00 +7°C° 0.2 mm 6 mps 759 mmHg 88%
    05:00 +8°C° 0.2 mm 6 mps 759 mmHg 89%
    06:00 +7°C° 0 mm 6 mps 758 mmHg 89%
    07:00 +7°C° 0 mm 6 mps 758 mmHg 89%
    08:00 +7°C° 0 mm 6 mps 758 mmHg 90%
    09:00 +6°C° 0 mm 7 mps 758 mmHg 87%
    10:00 +8°C° 0 mm 7 mps 758 mmHg 85%
    11:00 +7°C° 0 mm 8 mps 757 mmHg 83%
    12:00 +7°C° 0.8 mm 8 mps 757 mmHg 84%
    13:00 +7°C° 0.8 mm 8 mps 756 mmHg 85%
    14:00 +9°C° 0.8 mm 8 mps 756 mmHg 87%
    15:00 +9°C° 2.2 mm 8 mps 756 mmHg 88%
    16:00 +9°C° 2.2 mm 7 mps 756 mmHg 90%
    17:00 +9°C° 2.2 mm 7 mps 756 mmHg 91%
    18:00 +9°C° 0.2 mm 6 mps 756 mmHg 91%
    19:00 +8°C° 0.2 mm 6 mps 756 mmHg 91%
    20:00 +8°C° 0.2 mm 5 mps 756 mmHg 91%
    21:00 +8°C° 0 mm 5 mps 756 mmHg 91%
    22:00 +8°C° 0 mm 5 mps 756 mmHg 91%
    23:00 +8°C° 0 mm 5 mps 757 mmHg 90%

    15 December, Saturday

    Time Temperature Precipitation Wind Pressure Humidity
    00:00 +7°C° 0 mm 4 mps 756 mmHg 91%
    01:00 +7°C° 0 mm 4 mps 756 mmHg 92%
    02:00 +8°C° 0 mm 3 mps 755 mmHg 93%
    03:00 +8°C° 0 mm 3 mps 754 mmHg 94%
    04:00 +7°C° 0 mm 4 mps 753 mmHg 94%
    05:00 +7°C° 0 mm 4 mps 752 mmHg 95%
    06:00 +8°C° 1.5 mm 6 mps 750 mmHg 94%
    07:00 +9°C° 1.5 mm 7 mps 748 mmHg 93%
    08:00 +10°C° 1.5 mm 8 mps 746 mmHg 92%
    09:00 +11°C° 3.5 mm 9 mps 744 mmHg 91%
    10:00 +11°C° 3.5 mm 10 mps 742 mmHg 91%
    11:00 +12°C° 3.5 mm 11 mps 740 mmHg 90%
    12:00 +10°C° 0.6 mm 13 mps 738 mmHg 83%
    13:00 +9°C° 0.6 mm 15 mps 736 mmHg 77%
    14:00 +7°C° 0.6 mm 17 mps 735 mmHg 71%
    15:00 +6°C° 0.5 mm 17 mps 736 mmHg 70%
    16:00 +6°C° 0.5 mm 18 mps 737 mmHg 69%
    17:00 +6°C° 0.5 mm 19 mps 738 mmHg 69%
    18:00 +5°C° 0.4 mm 17 mps 741 mmHg 67%
    19:00 +5°C° 0.4 mm 15 mps 743 mmHg 66%
    20:00 +5°C° 0.4 mm 14 mps 745 mmHg 65%
    21:00 +4°C° 0.1 mm 12 mps 747 mmHg 65%
    22:00 +4°C° 0.1 mm 11 mps 748 mmHg 65%
    23:00 +5°C° 0.1 mm 10 mps 749 mmHg 65%

    16 December, Sunday

    Time Temperature Precipitation Wind Pressure Humidity
    00:00 +3°C° 0.1 mm 9 mps 750 mmHg 68%
    01:00 +4°C° 0.1 mm 8 mps 750 mmHg 71%
    02:00 +4°C° 0.1 mm 7 mps 750 mmHg 74%
    03:00 +4°C° 0.2 mm 7 mps 750 mmHg 75%
    04:00 +4°C° 0.2 mm 7 mps 750 mmHg 77%
    05:00 +4°C° 0.2 mm 7 mps 751 mmHg 79%
    06:00 +4°C° 0.2 mm 7 mps 751 mmHg 80%
    07:00 +4°C° 0.2 mm 6 mps 751 mmHg 81%
    08:00 +4°C° 0.2 mm 6 mps 751 mmHg 82%
    09:00 +4°C° 0.2 mm 6 mps 751 mmHg 80%
    10:00 +5°C° 0.2 mm 7 mps 751 mmHg 78%
    11:00 +6°C° 0.2 mm 7 mps 751 mmHg 77%
    12:00 +5°C° 0.1 mm 6 mps 751 mmHg 77%
    13:00 +5°C° 0.1 mm 6 mps 751 mmHg 77%
    14:00 +5°C° 0.1 mm 6 mps 750 mmHg 77%
    15:00 +4°C° 0.1 mm 6 mps 751 mmHg 78%
    16:00 +4°C° 0.1 mm 6 mps 751 mmHg 79%
    17:00 +3°C° 0.1 mm 6 mps 751 mmHg 80%
    18:00 +4°C° 0.1 mm 6 mps 752 mmHg 81%
    19:00 +4°C° 0.1 mm 6 mps 752 mmHg 81%
    20:00 +5°C° 0.1 mm 5 mps 753 mmHg 81%
    21:00 +5°C° 0.1 mm 5 mps 753 mmHg 82%
    22:00 +5°C° 0.1 mm 5 mps 753 mmHg 82%
    23:00 +5°C° 0.1 mm 5 mps 754 mmHg 82%
    Show more